This demonstration page uses our WeatherBlox Daily Observations layout. Learn more.

Left ArrowRight Arrow

34.02893, -84.19858

Hourly Observations for March 21, 2022

Temp ( °F °C ) Dew Point ( °F °C ) Humidity (%) Winds ( mph kmh ) Pressure ( in mb ) Visibility ( mi km ) Precip ( " mm )
12:53 am 00:53 Clear 45 7.2 33 0.6 63 63 Calm 30.27 1025 10 16 0.00 0.00
1:53 am 01:53 Clear 40 4.4 35 1.7 83 83 Calm 30.25 1025 10 16 0.00 0.00
2:53 am 02:53 Clear 42 5.6 35 1.7 76 76 Calm 30.26 1025 10 16 0.00 0.00
3:53 am 03:53 Clear 40 4.4 35 1.7 83 83 Calm 30.26 1025 10 16 0.00 0.00
4:53 am 04:53 Clear 39 3.9 35 1.7 86 86 Calm 30.26 1025 10 16 0.00 0.00
5:53 am 05:53 Clear 37 2.8 35 1.7 93 93 Calm 30.27 1025 10 16 0.00 0.00
6:53 am 06:53 Clear 35 1.7 33 0.6 93 93 Calm 30.28 1025 10 16 0.00 0.00
7:53 am 07:53 Sunny 37 2.8 34 1.1 89 89 Calm 30.31 1026 10 16 0.00 0.00
8:53 am 08:53 Sunny 46 7.8 40 4.4 79 79 Calm 30.31 1026 10 16 0.00 0.00
9:53 am 09:53 Sunny 56 13.3 34 1.1 44 44 VRB 3 6 30.33 1027 10 16 0.00 0.00
10:53 am 10:53 Sunny 61 16.1 32 0 34 34 VRB 3 6 30.33 1027 10 16 0.00 0.00
11:53 am 11:53 Sunny 63 17.2 30 -1.1 29 29 VRB 7 11 30.33 1027 10 16 0.00 0.00
12:53 pm 12:53 Sunny 66 18.9 31 -0.6 27 27 undefined N/A 30.31 1026 10 16 0.00 0.00
1:53 pm 13:53 Sunny 68 20 32 0 26 26 S 9 15 30.28 1026 10 16 0.00 0.00
2:53 pm 14:53 Sunny 69 20.6 31 -0.6 24 24 undefined N/A 30.24 1024 10 16 0.00 0.00
2:56 pm 14:56 Sunny 69 20.6 31 -0.6 24 24 S 12 19 30.22 1023 10 16 0.00 0.00
2:58 pm 14:58 Sunny 69 20.6 31 -0.6 24 24 S 12 19 30.21 1023 10 16 0.00 0.00
3:53 pm 15:53 Sunny 70 21.1 31 -0.6 23 23 S 12 19 30.22 1023 10 16 0.00 0.00
4:53 pm 16:53 Sunny 71 21.7 30 -1.1 22 22 VRB 7 11 30.18 1022 10 16 0.00 0.00
5:53 pm 17:53 Sunny 71 21.7 32 0 24 24 SSE 8 13 30.16 1022 10 16 0.00 0.00
6:53 pm 18:53 Sunny 70 21.1 31 -0.6 23 23 VRB 3 6 30.15 1021 10 16 0.00 0.00
7:53 pm 19:53 Clear 66 18.9 29 -1.7 25 25 SE 3 6 30.15 1021 10 16 0.00 0.00
8:53 pm 20:53 Clear 60 15.6 31 -0.6 33 33 Calm 30.15 1021 10 16 0.00 0.00
9:53 pm 21:53 Clear 60 15.6 32 0 35 35 Calm 30.16 1021 10 16 0.00 0.00
10:53 pm 22:53 Clear 57 13.9 33 0.6 41 41 Calm 30.16 1021 10 16 0.00 0.00
11:53 pm 23:53 Clear 58 14.4 32 0 38 38 SE 3 6 30.15 1021 10 16 0.00 0.00

Powered by AerisWeather